FENGYUN 1C DEB

Satellite information

Favourite Embed

Satellite Type and Status

DEBRISIN ORBIT

Key statistics

Satellite FENGYUN 1C DEB at a glance.

Uptime

9659

Days in orbit

Revolutions

≈ 14.6

Per day

Orbit

SSO

Sun Synchronous Orbit

Inclination

99.0

Latest

Satellite identification and parameters

Extended collection of information and parameters for FENGYUN 1C DEB.

Object identification

Identified? True

Debris? True

Object name: FENGYUN 1C DEB

International designator: 1999-025BSV

Object number (NORAD): 31389

Object ID (CCSDS): 31389

Country: PEOPLES REPUBLIC OF CHINA (PRC)

Current information (Y/N): Y

RCS size: SMALL

Orbital parameters

Period: 98.804 minutes

Inclination: 99.0479 deg

SMA: 7079.618 km

Apoapsis: 722.559 km

Periapsis: 680.407 km

RAAN: 91.8617 deg

Eccentricy: 0.00297696

Argument of periapsis: 349.7534 deg

Mean anomaly: 41.1486 deg

Mean motion: 14.57431082 rev/day

Mean motion (dot): 0.00030774 rev/day2

B* drag term: 0.0067226419 1/REarth

Two-line elements (TLE)

Creation date: Oct. 19, 2025, 2:20 a.m.

Reference frame: TEME

Reference center: EARTH

Epoch: Oct. 18, 2025, 9:21 a.m. UTC

TLE line 0: 0 FENGYUN 1C DEB

TLE line 1: 1 31389U 99025BSV 25291.38997360 .00030774 00000-0 67226-2 0 9999

TLE line 2: 2 31389 99.0479 91.8617 0029770 349.7534 41.1486 14.57431082956904

Live tracking on map

Real-time ground track for satellite FENGYUN 1C DEB.

In-orbit conjunctions

A list of the most updated potential collisions computed for object FENGYUN 1C DEB.

Target Orbit TCA Probability of collision Miss distance Type
CZ-6A DEB LEO 2025-02-03 04:17:54 0.0001164381 473.0 (m) DEBRIS
COSMOS 2251 DEB LEO 2024-11-16 10:41:49 0.0001488834 866.0 (m) DEBRIS

Associated space launch

Chinese polar orbiting meteorological satellite

FENGYUN 1C DEB was lifted into orbit during the mission ‘Long March 4B | Feng Yun 1C’, on board a Long March 4B space rocket.

The launch took place on May 10, 1999, 1:33 a.m. from Launch Complex 7.

For more information about the launch, click the button.

Launch to space Long March 4B | Feng Yun 1C
Long March 4B | Feng Yun 1C

Agency: N/A

Status: Launch Successful

Launch date: May 10, 1999, 1:33 a.m. UTC

Rocket: Long March 4B

Launch pad: Launch Complex 7

Location: Taiyuan Satellite Launch Center, People's Republic of China

...

Latest news about this satellite

There are no fresh news available about this satellite. Check back as we update our databases every day.


Newsletter sign-up

Weekly statistics, charts and insights to help you stay on top of the space industry.